Voltar ao catálogo

ATLAS 5 CENTAUR DEB

AtivoHEO
NORAD 44003·DEBRIS·🇺🇸 United States

Lançado Sep 17, 2014 de Cape Canaveral Space Force Station

Loading…

Próximas Passagens (próximas 24 horas)

TLE

AtualizadoSource: Space-Track

Época: Sep 11, 2026, 13:07 UTC

1 44003U 14055BJ  26254.54659166 -.00000038  00000-0  00000-0 0  9999
2 44003  19.4847 169.5423 4604077 121.8564 291.0869  1.81344941 53021

Acompanhe ATLAS 5 CENTAUR DEB em tempo real com AllMySat

Download on the App Store